{"data":{"norad_id":52290,"epoch":"2026-09-20T03:01:58.463040Z","epoch_age_seconds":91794,"freshness":"FRESH","line1":"1 52290U 22041AF  26263.12637110  .00000409  00000+0  23246-4 0  9990","line2":"2 52290  53.1595 293.2270 0001257  92.4594 267.6552 15.34387375244033","mean_motion":15.34387375,"eccentricity":0.0001257,"inclination_deg":53.1595,"raan_deg":293.227,"arg_perigee_deg":92.4594,"mean_anomaly_deg":267.6552,"bstar":2.3246e-5,"rev_number":24403,"period_min":93.848530264399,"perigee_km":461.88086628998,"apogee_km":463.60066296001,"semimajor_km":6840.877764625,"source":"CELESTRAK","updated_at":"2026-09-20T09:00:40.016315Z"}}